FW0472 Weather Reports


Display with metric or nautical units.
time (UTC)temp
F
wind
direction
speed
MPH
gust
MPH
rain 1hr
in
rain 24hr
in
rain mn
in
humidity
%
barometer
mb
20260905031141 64 351 0.0 0.0 0.00 0.00 0.00 89 1037.3
20260905030636 64 351 0.0 0.0 0.00 0.00 0.00 88 1037.3
20260905030131 64 351 0.0 0.0 0.00 0.00 0.00 88 1037.3
20260905025626 64 351 0.0 0.0 0.00 0.00 0.00 87 1037.5
20260905025122 64 351 0.0 0.0 0.00 0.00 0.00 87 1037.6
20260905024617 64 351 0.0 0.0 0.00 0.00 0.00 87 1037.5
20260905024112 65 351 0.0 0.0 0.00 0.00 0.00 87 1037.4
20260905023608 65 351 0.0 0.0 0.00 0.00 0.00 86 1037.7
20260905023102 65 351 0.0 0.0 0.00 0.00 0.00 85 1037.9
20260905022601 65 351 0.0 0.0 0.00 0.00 0.00 85 1037.9
20260905022057 66 351 0.0 0.0 0.00 0.00 0.00 85 1037.9
20260905021556 66 351 0.0 0.0 0.00 0.00 0.00 84 1037.8
20260905021052 66 351 0.0 0.0 0.00 0.00 0.00 83 1037.8
20260905020551 67 351 0.0 0.0 0.00 0.00 0.00 82 1037.8
20260905020047 67 351 0.0 0.0 0.00 0.00 0.00 81 1037.8
20260905015544 67 351 0.0 0.0 0.00 0.00 0.00 80 1037.7
20260905015040 67 351 0.0 0.0 0.00 0.00 0.00 79 1037.9
20260905014534 67 349 0.0 0.0 0.00 0.00 0.00 79 1037.9
20260905014030 67 347 0.0 0.0 0.00 0.00 0.00 79 1037.8
20260905013526 67 347 0.0 0.0 0.00 0.00 0.00 79 1037.8
20260905013022 67 348 0.0 0.0 0.00 0.00 0.00 78 1038.0
20260905012515 67 349 0.0 0.0 0.00 0.00 0.00 77 1038.1
20260905012013 68 349 0.0 0.0 0.00 0.00 0.00 77 1037.8
20260905011509 68 349 0.0 0.0 0.00 0.00 0.00 77 1038.1
20260905011004 68 349 0.0 0.0 0.00 0.00 0.00 77 1038.0
20260905010503 68 349 0.0 0.0 0.00 0.00 0.00 77 1037.9
20260905005959 68 346 0.0 0.0 0.00 0.00 0.00 76 1037.9
20260905005455 68 339 0.0 0.0 0.00 0.00 0.00 75 1037.9
20260905004950 68 346 0.0 0.0 0.00 0.00 0.00 75 1038.2
20260905004445 68 341 0.0 0.0 0.00 0.00 0.00 75 1038.0
20260905003940 69 346 0.0 0.0 0.00 0.00 0.00 75 1038.0
20260905003436 69 346 0.0 0.0 0.00 0.00 0.00 74 1037.9
20260905002931 69 348 0.0 0.0 0.00 0.00 0.00 73 1038.0
20260905002426 69 334 0.0 0.0 0.00 0.00 0.00 73 1038.0
20260905001925 69 325 0.0 0.0 0.00 0.00 0.00 73 1037.9
20260905001421 69 29 1.0 2.0 0.00 0.00 0.00 73 1037.9
20260905000915 69 354 0.0 0.0 0.00 0.00 0.00 73 1037.8
20260905000411 69 14 0.0 0.0 0.00 0.00 0.00 74 1037.6
20260904235906 69 344 0.0 0.0 0.00 0.00 0.00 74 1037.8
20260904235401 69 350 0.0 0.0 0.00 0.00 0.00 74 1037.7
20260904234856 69 331 0.0 0.0 0.00 0.00 0.00 74 1037.5
20260904234350 69 340 0.0 0.0 0.00 0.00 0.00 75 1037.4
20260904233846 69 350 1.0 1.0 0.00 0.00 0.00 75 1037.3
20260904233342 69 50 1.0 1.0 0.00 0.00 0.00 74 1037.4
20260904232839 69 336 0.0 0.0 0.00 0.00 0.00 74 1037.4
20260904232335 69 357 0.0 0.0 0.00 0.00 0.00 74 1037.4
20260904231831 69 30 1.0 1.0 0.00 0.00 0.00 75 1037.5
20260904231330 69 341 0.0 0.0 0.00 0.00 0.00 75 1037.2
20260904230826 70 353 0.0 0.0 0.00 0.00 0.00 75 1037.3
20260904230325 70 350 0.0 0.0 0.00 0.00 0.00 74 1037.4
20260904225820 70 354 0.0 0.0 0.00 0.00 0.00 74 1037.3
20260904225318 70 47 1.0 1.0 0.00 0.00 0.00 73 1037.3
20260904224818 70 45 0.0 1.0 0.00 0.00 0.00 73 1037.4
20260904224314 71 343 0.0 0.0 0.00 0.00 0.00 72 1037.5
20260904223813 71 356 0.0 0.0 0.00 0.00 0.00 73 1037.5
20260904223307 71 2 1.0 1.0 0.00 0.00 0.00 72 1037.2
20260904222804 71 11 1.0 1.0 0.00 0.00 0.00 71 1037.3
20260904222259 71 340 0.0 0.0 0.00 0.00 0.00 71 1037.4
20260904221758 71 357 0.0 1.0 0.00 0.00 0.00 72 1037.3
20260904221253 72 359 0.0 0.0 0.00 0.00 0.00 73 1037.3
20260904220749 72 348 0.0 1.0 0.00 0.00 0.00 71 1037.2
20260904220247 71 352 0.0 0.0 0.00 0.00 0.00 73 1037.3
20260904215743 71 353 0.0 0.0 0.00 0.00 0.00 73 1037.3
20260904215238 72 351 0.0 0.0 0.00 0.00 0.00 71 1037.2
20260904214734 72 322 0.0 0.0 0.00 0.00 0.00 69 1037.1
20260904214229 73 326 0.0 0.0 0.00 0.00 0.00 71 1037.2
20260904213727 72 353 0.0 0.0 0.00 0.00 0.00 70 1037.3
20260904213224 73 333 0.0 0.0 0.00 0.00 0.00 66 1037.4
20260904212719 73 349 0.0 0.0 0.00 0.00 0.00 66 1037.4
20260904212214 73 303 1.0 2.0 0.00 0.00 0.00 65 1037.4
20260904211714 73 330 0.0 0.0 0.00 0.00 0.00 67 1037.3
20260904211208 73 306 0.0 1.0 0.00 0.00 0.00 64 1037.3
20260904210703 73 41 0.0 1.0 0.00 0.00 0.00 65 1037.2
20260904210158 73 328 0.0 1.0 0.00 0.00 0.00 64 1037.3
20260904205654 73 324 0.0 0.0 0.00 0.00 0.00 66 1037.2
20260904205150 74 29 0.0 0.0 0.00 0.00 0.00 66 1037.2
20260904204646 74 10 0.0 1.0 0.00 0.00 0.00 64 1037.0
20260904204141 74 17 0.0 1.0 0.00 0.00 0.00 64 1037.2
20260904203637 74 344 0.0 0.0 0.00 0.00 0.00 63 1037.4
20260904203134 75 358 0.0 1.0 0.00 0.00 0.00 62 1037.2
20260904202630 75 349 0.0 0.0 0.00 0.00 0.00 63 1037.2
20260904202126 76 326 0.0 0.0 0.00 0.00 0.00 62 1037.2
20260904201626 77 326 1.0 2.0 0.00 0.00 0.00 57 1037.0
20260904201121 77 336 0.0 0.0 0.00 0.00 0.00 57 1037.2
20260904200615 76 13 0.0 0.0 0.00 0.00 0.00 59 1037.1
20260904200110 76 342 0.0 0.0 0.00 0.00 0.00 63 1037.0
20260904195608 76 88 2.0 3.0 0.00 0.00 0.00 60 1037.0
20260904195108 76 347 0.0 0.0 0.00 0.00 0.00 62 1036.8
20260904194602 76 336 0.0 0.0 0.00 0.00 0.00 60 1037.1
20260904194057 77 6 0.0 0.0 0.00 0.00 0.00 62 1037.1
20260904193551 78 79 0.0 1.0 0.00 0.00 0.00 57 1037.1
20260904193048 77 346 0.0 0.0 0.00 0.00 0.00 62 1037.0
20260904192547 77 319 0.0 0.0 0.00 0.00 0.00 59 1037.3
20260904192044 76 341 1.0 2.0 0.00 0.00 0.00 61 1037.2
20260904191540 76 348 0.0 0.0 0.00 0.00 0.00 62 1037.3
20260904191036 76 355 0.0 1.0 0.00 0.00 0.00 59 1037.3
20260904190532 76 21 3.0 3.0 0.00 0.00 0.00 61 1037.3
20260904190028 75 81 2.0 2.0 0.00 0.00 0.00 61 1037.1
20260904185524 75 354 0.0 0.0 0.00 0.00 0.00 62 1037.3
20260904185018 76 299 0.0 1.0 0.00 0.00 0.00 60 1037.2
20260904184513 77 343 0.0 0.0 0.00 0.00 0.00 62 1037.2
20260904184008 77 321 0.0 0.0 0.00 0.00 0.00 59 1037.2
20260904183503 75 16 0.0 1.0 0.00 0.00 0.00 62 1037.3
20260904182958 76 36 1.0 2.0 0.00 0.00 0.00 61 1037.1
20260904182454 76 78 1.0 2.0 0.00 0.00 0.00 60 1037.2
20260904181953 76 327 0.0 1.0 0.00 0.00 0.00 62 1037.3
20260904181449 76 325 0.0 0.0 0.00 0.00 0.00 63 1037.2
20260904180944 75 354 0.0 0.0 0.00 0.00 0.00 64 1037.5
20260904180439 76 308 0.0 0.0 0.00 0.00 0.00 64 1037.4
20260904175938 76 315 0.0 0.0 0.00 0.00 0.00 62 1037.5
20260904175437 77 338 0.0 1.0 0.00 0.00 0.00 58 1037.5
20260904174932 78 89 4.0 5.0 0.00 0.00 0.00 57 1037.3
20260904174427 77 336 0.0 0.0 0.00 0.00 0.00 57 1037.1
20260904173924 76 343 0.0 1.0 0.00 0.00 0.00 57 1037.0
20260904173419 75 358 0.0 0.0 0.00 0.00 0.00 62 1037.0
20260904172914 75 327 0.0 0.0 0.00 0.00 0.00 63 1037.2
20260904172414 74 321 0.0 0.0 0.00 0.00 0.00 65 1037.4
20260904171903 74 315 0.0 0.0 0.00 0.00 0.00 66 1037.1
20260904171358 74 323 0.0 0.0 0.00 0.00 0.00 66 1037.4
20260904170854 74 342 0.0 0.0 0.00 0.00 0.00 68 1037.5
20260904170350 74 304 1.0 2.0 0.00 0.00 0.00 65 1037.4
20260904165844 74 25 4.0 6.0 0.00 0.00 0.00 65 1037.3
20260904165337 74 331 0.0 0.0 0.00 0.00 0.00 68 1037.4
20260904164832 74 327 1.0 1.0 0.00 0.00 0.00 67 1037.3
20260904164326 75 354 1.0 1.0 0.00 0.00 0.00 67 1037.2
20260904163824 75 318 1.0 1.0 0.00 0.00 0.00 68 1037.3
20260904163323 74 345 1.0 1.0 0.00 0.00 0.00 68 1037.4
20260904162822 75 344 0.0 0.0 0.00 0.00 0.00 71 1037.6
20260904162318 75 323 0.0 1.0 0.00 0.00 0.00 70 1037.3
20260904161814 74 334 0.0 1.0 0.00 0.00 0.00 69 1037.5
20260904161314 74 332 0.0 0.0 0.00 0.00 0.00 71 1037.3
20260904160809 74 329 0.0 0.0 0.00 0.00 0.00 72 1037.5
20260904160304 74 319 0.0 1.0 0.00 0.00 0.00 73 1037.3
20260904155759 74 283 2.0 3.0 0.00 0.00 0.00 71 1037.6
20260904155258 74 315 1.0 1.0 0.00 0.00 0.00 72 1037.5
20260904154756 73 328 0.0 1.0 0.00 0.00 0.00 73 1037.4
20260904154252 73 327 1.0 1.0 0.00 0.00 0.00 75 1037.5
20260904153747 72 319 0.0 1.0 0.00 0.00 0.00 75 1037.5
20260904153243 72 15 1.0 1.0 0.00 0.00 0.00 80 1037.5
20260904152739 72 85 1.0 3.0 0.00 0.00 0.00 77 1037.5
20260904152234 72 316 0.0 1.0 0.00 0.00 0.00 79 1037.8
20260904151729 72 317 0.0 0.0 0.00 0.00 0.00 79 1037.7
20260904151228 72 337 0.0 0.0 0.00 0.00 0.00 79 1037.6
20260904150724 71 321 0.0 0.0 0.00 0.00 0.00 80 1037.8
20260904150219 71 330 0.0 0.0 0.00 0.00 0.00 81 1037.9
20260904145717 71 303 0.0 0.0 0.00 0.00 0.00 81 1037.6
20260904145213 70 336 0.0 0.0 0.00 0.00 0.00 84 1037.9
20260904144708 70 336 0.0 0.0 0.00 0.00 0.00 85 1037.7
20260904144204 69 338 0.0 0.0 0.00 0.00 0.00 87 1037.7
20260904143659 68 324 0.0 0.0 0.00 0.00 0.00 89 1038.0
20260904143156 67 345 0.0 0.0 0.00 0.00 0.00 92 1037.9
20260904142652 66 329 0.0 0.0 0.00 0.00 0.00 97 1038.0
20260904142148 65 327 0.0 0.0 0.00 0.00 0.00 99 1037.8
20260904141642 64 343 0.0 0.0 0.00 0.00 0.00 99 1038.0
20260904141138 64 325 0.0 0.0 0.00 0.00 0.00 99 1037.9
20260904140633 64 330 0.0 0.0 0.00 0.00 0.00 99 1037.8
20260904140128 64 335 0.0 0.0 0.00 0.00 0.00 99 1037.8
20260904135627 63 333 0.0 0.0 0.00 0.00 0.00 99 1037.8
20260904135123 63 328 0.0 0.0 0.00 0.00 0.00 99 1038.0
20260904134618 62 326 0.0 0.0 0.00 0.00 0.00 99 1037.9
20260904134112 62 333 0.0 0.0 0.00 0.00 0.00 99 1038.0
20260904133607 62 322 0.0 0.0 0.00 0.00 0.00 99 1038.0
20260904133103 62 324 0.0 0.0 0.00 0.00 0.00 99 1038.0
20260904132603 62 324 0.0 0.0 0.00 0.00 0.00 99 1037.8
20260904132057 62 303 0.0 0.0 0.00 0.00 0.00 99 1038.0
20260904131557 62 327 0.0 0.0 0.00 0.00 0.00 99 1037.9
20260904131053 62 319 0.0 0.0 0.00 0.00 0.00 99 1038.0
20260904130552 62 322 0.0 0.0 0.00 0.00 0.00 99 1038.0
20260904130047 61 323 0.0 0.0 0.00 0.00 0.00 99 1038.1
20260904125543 61 323 0.0 0.0 0.00 0.00 0.00 99 1038.1
20260904125038 61 323 0.0 0.0 0.00 0.00 0.00 99 1038.1
20260904124533 61 323 0.0 0.0 0.00 0.00 0.00 99 1038.2
20260904124028 61 327 0.0 0.0 0.00 0.00 0.00 99 1038.1
20260904123523 61 327 0.0 0.0 0.00 0.00 0.00 99 1038.1
20260904123019 61 319 0.0 0.0 0.00 0.00 0.00 99 1038.1
20260904122519 61 322 0.0 0.0 0.00 0.00 0.00 99 1038.1
20260904122013 61 322 0.0 0.0 0.00 0.00 0.00 99 1038.2
20260904121509 61 324 0.0 0.0 0.00 0.00 0.00 99 1038.2
20260904121005 61 324 0.0 0.0 0.00 0.00 0.00 99 1038.2
20260904120501 60 330 0.0 0.0 0.00 0.00 0.00 99 1038.3
20260904115955 60 321 0.0 0.0 0.00 0.00 0.00 99 1038.2
20260904115451 60 323 0.0 0.0 0.00 0.00 0.00 99 1038.3
20260904114951 60 322 0.0 0.0 0.00 0.00 0.00 99 1038.1
20260904114446 61 323 0.0 0.0 0.00 0.00 0.00 99 1038.1
20260904113941 61 322 0.0 0.0 0.00 0.00 0.00 99 1038.3
20260904113440 61 323 0.0 0.0 0.00 0.00 0.00 99 1038.0
20260904112934 61 323 0.0 0.0 0.00 0.00 0.00 99 1038.1
20260904112430 60 324 0.0 0.0 0.00 0.00 0.00 99 1038.1
20260904111925 60 324 0.0 0.0 0.00 0.00 0.00 99 1037.9
20260904111421 60 324 0.0 0.0 0.00 0.00 0.00 99 1037.9
20260904110917 60 324 0.0 0.0 0.00 0.00 0.00 99 1038.0
20260904110415 60 324 0.0 0.0 0.00 0.00 0.00 99 1037.8
20260904105911 60 324 0.0 0.0 0.00 0.00 0.00 99 1037.6
20260904105406 60 324 0.0 0.0 0.00 0.00 0.00 99 1037.8
20260904104901 60 324 0.0 0.0 0.00 0.00 0.00 99 1037.8
20260904104355 60 323 0.0 0.0 0.00 0.00 0.00 99 1037.7
20260904103853 60 325 0.0 0.0 0.00 0.00 0.00 99 1037.7
20260904103352 60 325 0.0 0.0 0.00 0.00 0.00 99 1037.6
20260904102848 60 328 0.0 0.0 0.00 0.00 0.00 99 1037.7
20260904102343 60 328 0.0 0.0 0.00 0.00 0.00 99 1037.7
20260904101839 60 328 0.0 0.0 0.00 0.00 0.00 99 1037.7
20260904101336 60 328 0.0 0.0 0.00 0.00 0.00 99 1037.7
20260904100831 60 328 0.0 0.0 0.00 0.00 0.00 99 1037.7
20260904100327 60 345 0.0 0.0 0.00 0.00 0.00 99 1037.6
20260904095822 60 345 0.0 0.0 0.00 0.00 0.00 99 1037.6
20260904095316 60 346 0.0 0.0 0.00 0.00 0.00 99 1037.6
20260904094812 60 346 0.0 0.0 0.00 0.00 0.00 99 1037.6
20260904094306 60 347 0.0 0.0 0.00 0.00 0.00 99 1037.6
20260904093803 60 348 0.0 0.0 0.00 0.00 0.00 99 1037.5
20260904093257 60 348 0.0 0.0 0.00 0.00 0.00 99 1037.6
20260904092752 60 349 0.0 0.0 0.00 0.00 0.00 99 1037.5
20260904092249 60 347 0.0 0.0 0.00 0.00 0.00 99 1037.7
20260904091744 60 344 0.0 0.0 0.00 0.00 0.00 99 1037.6
20260904091239 60 324 0.0 0.0 0.00 0.00 0.00 99 1037.5
20260904090735 60 323 0.0 0.0 0.00 0.00 0.00 99 1037.4
20260904090230 60 323 0.0 0.0 0.00 0.00 0.00 99 1037.4
20260904085725 60 321 0.0 0.0 0.00 0.00 0.00 99 1037.6
20260904085220 61 321 0.0 0.0 0.00 0.00 0.00 99 1037.3
20260904084714 61 330 0.0 0.0 0.00 0.00 0.00 99 1037.2
20260904084211 61 330 0.0 0.0 0.00 0.00 0.00 99 1037.4
20260904083707 61 331 0.0 0.0 0.00 0.00 0.00 99 1037.5
20260904083203 61 331 0.0 0.0 0.00 0.00 0.00 99 1037.4
20260904082703 61 331 0.0 0.0 0.00 0.00 0.00 99 1037.4
20260904082158 61 330 0.0 0.0 0.00 0.00 0.00 99 1037.4
20260904081654 61 330 0.0 0.0 0.00 0.00 0.00 99 1037.4
20260904081149 61 330 0.0 0.0 0.00 0.00 0.00 99 1037.5
20260904080644 61 330 0.0 0.0 0.00 0.00 0.00 99 1037.5
20260904080140 61 330 0.0 0.0 0.00 0.00 0.00 99 1037.7
20260904075637 61 330 0.0 0.0 0.00 0.00 0.00 99 1037.5
20260904075131 61 330 0.0 0.0 0.00 0.00 0.00 99 1037.4
20260904074625 62 331 0.0 0.0 0.00 0.00 0.00 99 1037.3
20260904074120 62 351 0.0 0.0 0.00 0.00 0.00 99 1037.3
20260904073614 62 354 0.0 0.0 0.00 0.00 0.00 99 1037.4
20260904073111 62 346 0.0 0.0 0.00 0.00 0.00 99 1037.4
20260904072606 62 346 0.0 0.0 0.00 0.00 0.00 99 1037.7
20260904072101 62 346 0.0 0.0 0.00 0.00 0.00 99 1037.5
20260904071557 62 346 0.0 0.0 0.00 0.00 0.00 99 1037.8
20260904071052 62 346 0.0 0.0 0.00 0.00 0.00 99 1037.9
20260904070550 62 347 0.0 0.0 0.00 0.00 0.00 99 1037.5
20260904070045 62 347 0.0 0.0 0.00 0.00 0.00 99 1037.4
20260904065540 62 347 0.0 0.0 0.00 0.00 0.00 99 1037.4
20260904065037 62 347 0.0 0.0 0.00 0.00 0.00 99 1037.7
20260904064533 62 344 0.0 0.0 0.00 0.00 0.00 99 1037.8
20260904064032 62 344 0.0 0.0 0.00 0.00 0.00 99 1037.9
20260904063529 62 343 0.0 0.0 0.00 0.00 0.00 99 1037.9
20260904063023 62 345 0.0 0.0 0.00 0.00 0.00 99 1037.9
20260904062520 62 345 0.0 0.0 0.00 0.00 0.00 99 1037.8
20260904062015 62 328 0.0 0.0 0.00 0.00 0.00 99 1037.9
20260904061511 62 327 0.0 0.0 0.00 0.00 0.00 99 1037.9
20260904061007 62 327 0.0 0.0 0.00 0.00 0.00 99 1037.9
20260904060503 62 327 0.0 0.0 0.00 0.00 0.00 99 1038.0
20260904055959 62 327 0.0 0.0 0.00 0.00 0.00 99 1038.1
20260904055454 62 327 0.0 0.0 0.00 0.00 0.00 99 1038.0
20260904054949 62 327 0.0 0.0 0.00 0.00 0.00 99 1038.1
20260904054445 62 327 0.0 0.0 0.00 0.00 0.00 99 1038.1
20260904053941 62 329 0.0 0.0 0.00 0.00 0.00 99 1038.2
20260904053440 62 329 0.0 0.0 0.00 0.00 0.00 99 1038.3
20260904052936 62 329 0.0 0.0 0.00 0.00 0.00 99 1038.3
20260904052432 62 328 0.0 0.0 0.00 0.00 0.00 99 1038.6
20260904051928 62 332 0.0 0.0 0.00 0.00 0.00 99 1038.4
20260904051424 63 332 0.0 0.0 0.00 0.00 0.00 99 1038.5
20260904050918 62 331 0.0 0.0 0.00 0.00 0.00 99 1038.6
20260904050415 62 330 0.0 0.0 0.00 0.00 0.00 99 1038.6
20260904045914 62 336 0.0 0.0 0.00 0.00 0.00 99 1038.7
20260904045410 62 336 0.0 0.0 0.00 0.00 0.00 99 1038.6
20260904044909 62 336 0.0 0.0 0.00 0.00 0.00 99 1038.5
20260904044406 62 336 0.0 0.0 0.00 0.00 0.00 99 1038.6
20260904043902 62 337 0.0 0.0 0.00 0.00 0.00 99 1038.6
20260904043358 62 337 0.0 0.0 0.00 0.00 0.00 99 1038.8
20260904042853 63 337 0.0 0.0 0.00 0.00 0.00 99 1038.8
20260904042349 62 337 0.0 0.0 0.00 0.00 0.00 99 1038.8
20260904041844 62 337 0.0 0.0 0.00 0.00 0.00 99 1038.9
20260904041340 63 337 0.0 0.0 0.00 0.00 0.00 99 1038.7
20260904040836 63 337 0.0 0.0 0.00 0.00 0.00 99 1038.7
20260904040331 63 337 0.0 0.0 0.00 0.00 0.00 99 1038.7
20260904035827 63 337 0.0 0.0 0.00 0.02 0.02 99 1038.9
20260904035323 63 337 0.0 0.0 0.00 0.02 0.02 99 1038.8
20260904034821 63 337 0.0 0.0 0.00 0.02 0.02 99 1038.9
20260904034317 63 337 0.0 0.0 0.00 0.02 0.02 99 1038.9
20260904033813 63 336 0.0 0.0 0.00 0.02 0.02 99 1039.0
20260904033309 63 336 0.0 0.0 0.00 0.02 0.02 99 1038.9
20260904032805 63 337 0.0 0.0 0.00 0.02 0.02 99 1038.8
20260904032306 64 337 0.0 0.0 0.00 0.02 0.02 99 1039.0
20260904031759 64 336 0.0 0.0 0.00 0.02 0.02 99 1039.1